Flag for Canada Weather past 2 weeks in MD of Lunenburg, Nova Scotia, Canada

Now
65 °F

Mild.


Feels Like: 65 °F
Forecast: 64 / 78 °F
Wind: 5 mph from South

Location: McNabs Island - AUT

Current Time: Aug 5, 2015 at 5:58:38 AM

Latest Report: Aug 5, 2015 at 5:00 AM


Visibility: N/A

Pressure: 29.83 "Hg

Humidity: 95%

Dew point: 64 °F

Location of MD of LunenburgLocation

Historic Weather in MD of Lunenburg — Graph

°F

MD of Lunenburg temperature yesterday

Maximum temperature yesterday: 71 °F (at 12:00 PM)
Minimum temperature yesterday: 65 °F (at 10:00 PM)
Average temperature yesterday: 67 °F

Past Weeks' High & Low Weather Summary

 TemperatureHumidityPressure
High80 °F (Jul 29, 5:00 PM)100% (Jul 22, 6:00 AM)30.14 "Hg (Jul 22, 6:00 AM)
Low57 °F (Jul 25, 4:00 AM)43% (Jul 29, 5:00 PM)29.50 "Hg (Jul 22, 5:00 PM)
Average65 °F86%29.85 "Hg
* Reported Jul 21 4:00 AM — Aug 5 4:00 AM, MD of Lunenburg, Weather by CustomWeather, © 2015

Note: Actual official high and low records may vary slightly from our data, if they occured in-between our weather recording intervals... More about our weather records

Advertising

MD of Lunenburg weather history for previous 24 hours

 ConditionsComfort  
Time TempWeatherWind HumidityBarometerVisibility
4:00 AM
Wed, Aug 5
65 °FMild.6 mph91%29.85 "HgN/A
3:00 AM66 °FMild.8 mph87%29.86 "HgN/A
2:00 AM68 °FMild.10 mph85%29.85 "HgN/A
1:00 AM68 °FMild.12 mph86%29.85 "HgN/A
12:00 AM68 °FMild.13 mph86%29.87 "HgN/A
11:00 PM
Tue, Aug 4
66 °FMild.8 mph97%29.89 "HgN/A
10:00 PM65 °FMild.8 mph94%29.89 "HgN/A
9:00 PM67 °FMild.13 mph91%29.89 "HgN/A
8:00 PM68 °FMild.14 mph91%29.88 "HgN/A
7:00 PM68 °FMild.17 mph96%29.88 "HgN/A
6:00 PM68 °FMild.9 mph98%29.88 "HgN/A
5:00 PM67 °FMild.9 mph97%29.87 "HgN/A
4:00 PM68 °FMild.12 mph95%29.88 "HgN/A
3:00 PM66 °FMild.12 mph97%29.89 "HgN/A
2:00 PM69 °FMild.9 mph93%29.90 "HgN/A
1:00 PM69 °FMild.8 mph95%29.91 "HgN/A
12:00 PM71 °FMild.12 mph90%29.92 "HgN/A
11:00 AM69 °FMild.14 mph96%29.92 "HgN/A
10:00 AM68 °FMild.12 mph98%29.91 "HgN/A
9:00 AM67 °FMild.14 mph97%29.92 "HgN/A
8:00 AM69 °FMild.13 mph98%29.92 "HgN/A
7:00 AM66 °FMild.9 mph98%29.92 "HgN/A
6:00 AM67 °FMild.10 mph98%29.91 "HgN/A
5:00 AM67 °FMild.5 mph98%29.91 "HgN/A
Weather by CustomWeather, © 2015

See weather overviewHow to use our weather pages